Home > Weather > Huddersfield > Past weeks

Flag for United Kingdom Weather for the Past 2 Weeks in Huddersfield, England, United Kingdom

Now
37 °F

Sprinkles. Scattered clouds.


Feels Like: 30 °F
Forecast: 37 / 41 °F
Wind: 12 mph from West

Location: Leeds And Bradford

Current Time: Feb 9, 2016 at 1:08:25 PM

Latest Report: Feb 9, 2016 at 12:20 PM


Visibility: N/A

Pressure: 28.94 "Hg

Humidity: 93%

Dew point: 36 °F

Location of HuddersfieldLocation

Historic Weather in Huddersfield — Graph

°F

Huddersfield Temperature Yesterday

Maximum temperature yesterday: 43 °F (at 11:50 AM)
Minimum temperature yesterday: 39 °F (at 1:50 AM)
Average temperature yesterday: 41 °F

High & Low Weather Summary for the Past Weeks

 TemperatureHumidityPressure
High55 °F (Jan 25, 12:50 PM)100% (Jan 26, 7:20 PM)30.21 "Hg (Jan 26, 7:20 PM)
Low32 °F (Jan 30, 2:20 PM)62% (Jan 29, 12:20 PM)28.65 "Hg (Feb 8, 6:50 AM)
Average43 °F88%29.58 "Hg
* Reported Jan 25 11:20 AM — Feb 9 11:50 AM, Huddersfield, Weather by CustomWeather, © 2016

Note: Actual official high and low records may vary slightly from our data, if they occured in-between our weather recording intervals... More about our weather records

Advertising

Huddersfield Weather History for the Previous 24 Hours

 ConditionsComfort  
Time TempWeatherWind HumidityBarometerVisibility
11:50 AM
Tue, Feb 9
36 °FSleet. Scattered clouds.16 mph93%28.94 "HgN/A
11:20 AM36 °FSleet. Scattered clouds.9 mph93%28.94 "HgN/A
10:20 AM37 °FScattered clouds.12 mph93%28.97 "HgN/A
9:50 AM37 °FScattered clouds.14 mph93%28.97 "HgN/A
9:20 AM37 °FScattered clouds.14 mph87%28.97 "HgN/A
8:50 AM36 °FSprinkles. Scattered clouds.10 mph100%28.97 "HgN/A
8:20 AM37 °FScattered showers. Scattered clouds.12 mph87%28.97 "HgN/A
7:50 AM36 °FSprinkles. Scattered clouds.13 mph93%28.97 "HgN/A
7:20 AM37 °FPassing clouds.13 mph87%28.97 "HgN/A
6:50 AM37 °FSprinkles. Passing clouds.14 mph87%28.97 "HgN/A
6:20 AM37 °FSprinkles. Passing clouds.14 mph87%29.00 "HgN/A
5:50 AM37 °FSprinkles. Passing clouds.13 mph93%29.00 "HgN/A
5:20 AM37 °FSprinkles. Passing clouds.16 mph93%29.00 "HgN/A
4:50 AM37 °FPassing clouds.16 mph93%29.00 "HgN/A
4:20 AM37 °FPassing clouds.16 mph93%29.00 "HgN/A
3:50 AM37 °FPassing clouds.16 mph93%29.03 "HgN/A
3:20 AM37 °FSprinkles. Passing clouds.17 mph93%29.03 "HgN/A
2:50 AM37 °FSprinkles. Passing clouds.20 mph93%29.03 "HgN/A
2:20 AM37 °FSprinkles. Passing clouds.21 mph93%29.03 "HgN/A
1:20 AM39 °FSprinkles. Passing clouds.21 mph87%29.06 "HgN/A
12:50 AM39 °FSprinkles. Passing clouds.18 mph93%29.06 "HgN/A
12:20 AM39 °FSprinkles. Passing clouds.18 mph87%29.06 "HgN/A
11:50 PM
Mon, Feb 8
39 °FSprinkles. Passing clouds.20 mph93%29.06 "HgN/A
11:20 PM39 °FSprinkles. Passing clouds.21 mph93%29.06 "HgN/A
10:50 PM39 °FSprinkles. Passing clouds.21 mph93%29.06 "HgN/A
10:20 PM39 °FSprinkles. Passing clouds.24 mph93%29.03 "HgN/A
9:50 PM41 °FSprinkles. Passing clouds.25 mph93%29.03 "HgN/A
9:20 PM41 °FSprinkles. Passing clouds.26 mph93%29.00 "Hg6 mi
8:50 PM41 °FSprinkles. Passing clouds.29 mph93%29.00 "Hg6 mi
8:20 PM41 °FSprinkles. Passing clouds.25 mph93%29.00 "Hg6 mi
7:50 PM41 °FSprinkles. Passing clouds.22 mph100%29.00 "Hg6 mi
7:20 PM43 °FSprinkles. Passing clouds.28 mph87%28.97 "Hg6 mi
6:50 PM43 °FSprinkles. Passing clouds.23 mph93%28.94 "Hg6 mi
6:20 PM43 °FSprinkles. Passing clouds.23 mph93%28.94 "Hg6 mi
5:50 PM43 °FSprinkles. Passing clouds.23 mph87%28.91 "HgN/A
5:20 PM43 °FSprinkles. Passing clouds.21 mph87%28.88 "HgN/A
4:50 PM43 °FScattered clouds.25 mph87%28.85 "HgN/A
4:20 PM43 °FScattered clouds.20 mph87%28.85 "HgN/A
3:50 PM43 °FScattered clouds.22 mph87%28.82 "HgN/A
3:20 PM43 °FScattered clouds.21 mph87%28.80 "HgN/A
2:50 PM43 °FLight rain. Scattered clouds.16 mph93%28.80 "HgN/A
2:20 PM41 °FLight rain. Scattered clouds.22 mph93%28.77 "HgN/A
1:50 PM41 °FLight rain. Scattered clouds.22 mph93%28.74 "Hg4 mi
1:20 PM41 °FLight rain. Scattered clouds.30 mph93%28.71 "HgN/A
Weather by CustomWeather, © 2016

See weather overviewHow to use our weather pages